Time,TemperatureF,DewpointF,PressureIn,WindDirection,WindDirectionDegrees,WindSpeedMPH,WindSpeedGustMPH,Humidity,HourlyPrecipIn,Conditions,Clouds,dailyrainin,SoftwareType,DateUTC
2013-11-28 00:01:00,36.5,31.8,30.42,West,271,0.0,0.0,83,0.00,,,0.00,Wunderground v.1.15,2013-11-27 23:01:00,
2013-11-28 00:11:00,36.6,31.6,30.42,West,271,0.0,0.0,82,0.00,,,0.00,Wunderground v.1.15,2013-11-27 23:11:00,
2013-11-28 00:21:00,39.3,28.9,30.43,SE,134,2.0,2.0,66,0.00,,,0.00,Wunderground v.1.15,2013-11-27 23:21:00,
2013-11-28 00:31:00,36.5,30.9,30.41,West,269,1.0,1.0,80,0.00,,,0.00,Wunderground v.1.15,2013-11-27 23:31:00,
2013-11-28 00:41:00,39.1,29.1,30.42,NW,306,3.0,7.0,67,0.00,,,0.00,Wunderground v.1.15,2013-11-27 23:41:00,
2013-11-28 00:51:00,39.1,29.4,30.42,North,9,3.0,7.0,68,0.00,,,0.00,Wunderground v.1.15,2013-11-27 23:51:00,
2013-11-28 01:01:00,38.7,29.0,30.42,NW,306,3.0,3.0,68,0.00,,,0.00,Wunderground v.1.15,2013-11-28 00:01:00,
2013-11-28 01:11:00,35.6,30.0,30.40,West,269,0.0,0.0,80,0.00,,,0.00,Wunderground v.1.15,2013-11-28 00:11:00,
2013-11-28 01:12:00,38.6,29.3,30.42,West,274,3.0,3.0,69,0.00,,,0.00,Wunderground v.1.15,2013-11-28 00:12:00,
2013-11-28 01:21:00,38.8,29.5,30.42,West,279,2.0,7.0,69,0.00,,,0.00,Wunderground v.1.15,2013-11-28 00:21:00,
2013-11-28 01:31:00,38.9,29.6,30.42,WNW,301,2.0,2.0,69,0.00,,,0.00,Wunderground v.1.15,2013-11-28 00:31:00,
2013-11-28 01:41:00,38.8,29.5,30.42,SW,231,2.0,7.0,69,0.00,,,0.00,Wunderground v.1.15,2013-11-28 00:41:00,
2013-11-28 01:51:00,38.8,29.8,30.42,SE,125,3.0,7.0,70,0.00,,,0.00,Wunderground v.1.15,2013-11-28 00:51:00,
2013-11-28 02:01:00,38.9,29.6,30.41,NW,312,3.0,3.0,69,0.00,,,0.00,Wunderground v.1.15,2013-11-28 01:01:00,
2013-11-28 02:11:00,39.0,29.7,30.42,WNW,302,2.0,2.0,69,0.00,,,0.00,Wunderground v.1.15,2013-11-28 01:11:00,
2013-11-28 02:21:00,38.9,29.9,30.42,WSW,257,2.0,7.0,70,0.00,,,0.00,Wunderground v.1.15,2013-11-28 01:21:00,
2013-11-28 02:31:00,38.8,29.8,30.42,SW,217,1.0,6.0,70,0.00,,,0.00,Wunderground v.1.15,2013-11-28 01:31:00,
2013-11-28 02:41:00,38.7,29.8,30.42,NW,325,2.0,2.0,70,0.00,,,0.00,Wunderground v.1.15,2013-11-28 01:41:00,
2013-11-28 02:51:00,38.6,29.7,30.42,WNW,302,1.0,1.0,70,0.00,,,0.00,Wunderground v.1.15,2013-11-28 01:51:00,
2013-11-28 03:01:00,38.4,29.8,30.42,WNW,302,0.0,5.0,71,0.00,,,0.00,Wunderground v.1.15,2013-11-28 02:01:00,
2013-11-28 03:11:00,37.8,29.6,30.42,WNW,302,0.0,2.0,72,0.00,,,0.00,Wunderground v.1.15,2013-11-28 02:11:00,
2013-11-28 03:21:00,37.1,29.2,30.42,WNW,302,0.0,0.0,73,0.00,,,0.00,Wunderground v.1.15,2013-11-28 02:21:00,
2013-11-28 03:31:00,32.2,28.5,30.40,WSW,254,0.0,1.0,86,0.00,,,0.00,Wunderground v.1.15,2013-11-28 02:31:00,
2013-11-28 03:41:00,36.2,29.4,30.42,West,279,0.0,4.0,76,0.00,,,0.00,Wunderground v.1.15,2013-11-28 02:41:00,
2013-11-28 03:51:00,35.9,29.1,30.42,West,279,0.0,3.0,76,0.00,,,0.00,Wunderground v.1.15,2013-11-28 02:51:00,
2013-11-28 04:01:00,35.7,28.9,30.42,West,279,0.0,1.0,76,0.00,,,0.00,Wunderground v.1.15,2013-11-28 03:01:00,
2013-11-28 04:11:00,35.3,28.8,30.42,West,279,0.0,3.0,77,0.00,,,0.00,Wunderground v.1.15,2013-11-28 03:11:00,
2013-11-28 04:21:00,35.1,28.9,30.42,West,279,0.0,0.0,78,0.00,,,0.00,Wunderground v.1.15,2013-11-28 03:21:00,
2013-11-28 04:31:00,34.9,28.7,30.42,West,279,0.0,3.0,78,0.00,,,0.00,Wunderground v.1.15,2013-11-28 03:31:00,
2013-11-28 04:41:00,34.7,28.5,30.41,West,279,1.0,1.0,78,0.00,,,0.00,Wunderground v.1.15,2013-11-28 03:41:00,
2013-11-28 04:51:00,34.7,28.5,30.42,West,279,0.0,3.0,78,0.00,,,0.00,Wunderground v.1.15,2013-11-28 03:51:00,
2013-11-28 05:01:00,34.7,28.9,30.42,West,279,0.0,2.0,79,0.00,,,0.00,Wunderground v.1.15,2013-11-28 04:01:00,
2013-11-28 05:11:00,34.4,28.2,30.42,West,279,0.0,0.0,78,0.00,,,0.00,Wunderground v.1.15,2013-11-28 04:11:00,
2013-11-28 05:21:00,32.2,28.5,30.39,WSW,256,1.0,4.0,86,0.00,,,0.00,Wunderground v.1.15,2013-11-28 04:21:00,
2013-11-28 05:31:00,33.1,27.9,30.41,West,279,0.0,3.0,81,0.00,,,0.00,Wunderground v.1.15,2013-11-28 04:31:00,
2013-11-28 05:41:00,33.3,28.1,30.41,WSW,257,1.0,4.0,81,0.00,,,0.00,Wunderground v.1.15,2013-11-28 04:41:00,
2013-11-28 05:51:00,33.7,28.2,30.42,WSW,257,1.0,1.0,80,0.00,,,0.00,Wunderground v.1.15,2013-11-28 04:51:00,
2013-11-28 06:01:00,33.6,28.1,30.42,WSW,257,0.0,4.0,80,0.00,,,0.00,Wunderground v.1.15,2013-11-28 05:01:00,
2013-11-28 06:11:00,33.2,27.7,30.41,WSW,257,0.0,0.0,80,0.00,,,0.00,Wunderground v.1.15,2013-11-28 05:11:00,
2013-11-28 06:21:00,32.6,27.4,30.42,WSW,257,1.0,1.0,81,0.00,,,0.00,Wunderground v.1.15,2013-11-28 05:21:00,
2013-11-28 06:31:00,32.6,27.4,30.41,WSW,257,0.0,3.0,81,0.00,,,0.00,Wunderground v.1.15,2013-11-28 05:31:00,
2013-11-28 06:41:00,31.2,27.8,30.38,WSW,248,1.0,3.0,87,0.00,,,0.00,Wunderground v.1.15,2013-11-28 05:41:00,
2013-11-28 06:51:00,31.4,28.0,30.39,WSW,256,2.0,2.0,87,0.00,,,0.00,Wunderground v.1.15,2013-11-28 05:51:00,
2013-11-28 07:01:00,31.4,28.0,30.39,West,273,2.0,2.0,87,0.00,,,0.00,Wunderground v.1.15,2013-11-28 06:01:00,
2013-11-28 07:11:00,31.5,28.1,30.39,WSW,238,1.0,1.0,87,0.00,,,0.00,Wunderground v.1.15,2013-11-28 06:11:00,
2013-11-28 07:21:00,31.6,28.2,30.39,WSW,238,0.0,0.0,87,0.00,,,0.00,Wunderground v.1.15,2013-11-28 06:21:00,
2013-11-28 07:31:00,31.4,28.0,30.39,WSW,238,1.0,2.0,87,0.00,,,0.00,Wunderground v.1.15,2013-11-28 06:31:00,
2013-11-28 07:41:00,31.5,28.1,30.39,WSW,238,1.0,1.0,87,0.00,,,0.00,Wunderground v.1.15,2013-11-28 06:41:00,
2013-11-28 08:01:00,31.4,27.7,30.39,WSW,238,1.0,3.0,86,0.00,,,0.00,Wunderground v.1.15,2013-11-28 07:01:00,
2013-11-28 08:11:00,31.1,27.7,30.40,WNW,283,2.0,2.0,87,0.00,,,0.00,Wunderground v.1.15,2013-11-28 07:11:00,
2013-11-28 08:21:00,31.4,28.3,30.40,West,273,1.0,1.0,88,0.00,,,0.00,Wunderground v.1.15,2013-11-28 07:21:00,
2013-11-28 08:31:00,31.5,28.1,30.41,West,273,0.0,0.0,87,0.00,,,0.00,Wunderground v.1.15,2013-11-28 07:31:00,
2013-11-28 08:41:00,31.7,28.3,30.41,West,273,0.0,1.0,87,0.00,,,0.00,Wunderground v.1.15,2013-11-28 07:41:00,
2013-11-28 08:51:00,32.1,28.7,30.41,West,273,0.0,0.0,87,0.00,,,0.00,Wunderground v.1.15,2013-11-28 07:51:00,
2013-11-28 09:01:00,32.3,28.6,30.41,West,273,0.0,0.0,86,0.00,,,0.00,Wunderground v.1.15,2013-11-28 08:01:00,
2013-11-28 09:11:00,32.5,29.1,30.41,West,273,0.0,0.0,87,0.00,,,0.00,Wunderground v.1.15,2013-11-28 08:11:00,
2013-11-28 09:21:00,33.0,29.3,30.40,West,273,0.0,0.0,86,0.00,,,0.00,Wunderground v.1.15,2013-11-28 08:21:00,
2013-11-28 09:31:00,33.4,29.4,30.40,West,273,0.0,0.0,85,0.00,,,0.00,Wunderground v.1.15,2013-11-28 08:31:00,
2013-11-28 09:41:00,34.0,30.0,30.41,West,273,0.0,0.0,85,0.00,,,0.00,Wunderground v.1.15,2013-11-28 08:41:00,
2013-11-28 09:51:00,34.5,30.5,30.41,West,273,0.0,0.0,85,0.00,,,0.00,Wunderground v.1.15,2013-11-28 08:51:00,
2013-11-28 10:01:00,35.5,30.8,30.41,West,273,0.0,0.0,83,0.00,,,0.00,Wunderground v.1.15,2013-11-28 09:01:00,
2013-11-28 10:21:00,37.3,32.3,30.41,West,273,0.0,0.0,82,0.00,,,0.00,Wunderground v.1.15,2013-11-28 09:21:00,
2013-11-28 10:31:00,38.1,32.8,30.41,West,273,0.0,0.0,81,0.00,,,0.00,Wunderground v.1.15,2013-11-28 09:31:00,
2013-11-28 10:41:00,38.6,33.3,30.41,West,273,0.0,0.0,81,0.00,,,0.00,Wunderground v.1.15,2013-11-28 09:41:00,
2013-11-28 11:01:00,39.3,32.7,30.41,West,273,0.0,0.0,77,0.00,,,0.00,Wunderground v.1.15,2013-11-28 10:01:00,
2013-11-28 11:11:00,39.7,32.8,30.41,West,273,0.0,0.0,76,0.00,,,0.00,Wunderground v.1.15,2013-11-28 10:11:00,
2013-11-28 11:21:00,40.3,32.7,30.41,West,273,0.0,0.0,74,0.00,,,0.00,Wunderground v.1.15,2013-11-28 10:21:00,
2013-11-28 11:31:00,41.0,30.9,30.41,West,273,0.0,0.0,67,0.00,,,0.00,Wunderground v.1.15,2013-11-28 10:31:00,
2013-11-28 11:41:00,41.5,31.0,30.40,West,273,0.0,2.0,66,0.00,,,0.00,Wunderground v.1.15,2013-11-28 10:41:00,
2013-11-28 11:51:00,42.2,31.3,30.40,West,273,0.0,0.0,65,0.00,,,0.00,Wunderground v.1.15,2013-11-28 10:51:00,
2013-11-28 12:01:00,42.5,30.4,30.39,West,273,0.0,0.0,62,0.00,,,0.00,Wunderground v.1.15,2013-11-28 11:01:00,
2013-11-28 12:11:00,42.8,30.3,30.39,West,273,0.0,0.0,61,0.00,,,0.00,Wunderground v.1.15,2013-11-28 11:11:00,
2013-11-28 12:21:00,43.2,31.1,30.38,West,273,0.0,0.0,62,0.00,,,0.00,Wunderground v.1.15,2013-11-28 11:21:00,
2013-11-28 12:31:00,43.7,31.1,30.38,NNW,333,0.0,0.0,61,0.00,,,0.00,Wunderground v.1.15,2013-11-28 11:31:00,
2013-11-28 12:41:00,44.2,31.6,30.37,NNW,333,0.0,0.0,61,0.00,,,0.00,Wunderground v.1.15,2013-11-28 11:41:00,
2013-11-28 12:51:00,44.6,32.0,30.36,NNW,333,0.0,0.0,61,0.00,,,0.00,Wunderground v.1.15,2013-11-28 11:51:00,
2013-11-28 13:01:00,45.0,31.9,30.36,NNW,333,0.0,0.0,60,0.00,,,0.00,Wunderground v.1.15,2013-11-28 12:01:00,
2013-11-28 13:11:00,45.4,32.3,30.36,NNW,333,0.0,0.0,60,0.00,,,0.00,Wunderground v.1.15,2013-11-28 12:11:00,
2013-11-28 13:21:00,45.9,33.2,30.35,West,260,0.0,0.0,61,0.00,,,0.00,Wunderground v.1.15,2013-11-28 12:21:00,
2013-11-28 13:31:00,46.3,34.0,30.35,West,274,0.0,0.0,62,0.00,,,0.00,Wunderground v.1.15,2013-11-28 12:31:00,
2013-11-28 13:41:00,46.7,34.0,30.34,NW,323,0.0,0.0,61,0.00,,,0.00,Wunderground v.1.15,2013-11-28 12:41:00,
2013-11-28 13:51:00,47.0,34.6,30.34,NNE,25,0.0,1.0,62,0.00,,,0.00,Wunderground v.1.15,2013-11-28 12:51:00,
2013-11-28 14:01:00,47.4,34.2,30.34,NW,311,0.0,0.0,60,0.00,,,0.00,Wunderground v.1.15,2013-11-28 13:01:00,
2013-11-28 14:11:00,47.8,34.6,30.33,NW,310,0.0,0.0,60,0.00,,,0.00,Wunderground v.1.15,2013-11-28 13:11:00,
2013-11-28 14:21:00,48.1,34.9,30.33,NW,318,0.0,0.0,60,0.00,,,0.00,Wunderground v.1.15,2013-11-28 13:21:00,
2013-11-28 14:41:00,48.6,34.9,30.32,North,350,0.0,0.0,59,0.00,,,0.00,Wunderground v.1.15,2013-11-28 13:41:00,
2013-11-28 14:51:00,48.8,35.1,30.32,NNW,338,0.0,0.0,59,0.00,,,0.00,Wunderground v.1.15,2013-11-28 13:51:00,
2013-11-28 15:01:00,48.7,35.0,30.32,NW,310,0.0,0.0,59,0.00,,,0.00,Wunderground v.1.15,2013-11-28 14:01:00,
2013-11-28 15:11:00,48.8,34.7,30.31,WNW,298,0.0,0.0,58,0.00,,,0.00,Wunderground v.1.15,2013-11-28 14:11:00,
2013-11-28 15:21:00,48.8,35.1,30.31,WNW,292,0.0,0.0,59,0.00,,,0.00,Wunderground v.1.15,2013-11-28 14:21:00,
2013-11-28 15:42:00,48.6,34.9,30.31,WNW,297,0.0,0.0,59,0.00,,,0.00,Wunderground v.1.15,2013-11-28 14:42:00,
2013-11-28 15:51:00,48.5,34.8,30.31,NW,318,0.0,0.0,59,0.00,,,0.00,Wunderground v.1.15,2013-11-28 14:51:00,
2013-11-28 16:01:00,48.4,34.7,30.31,NW,319,0.0,0.0,59,0.00,,,0.00,Wunderground v.1.15,2013-11-28 15:01:00,
2013-11-28 16:11:00,48.3,35.0,30.31,NW,319,0.0,1.0,60,0.00,,,0.00,Wunderground v.1.15,2013-11-28 15:11:00,
2013-11-28 16:21:00,48.1,34.9,30.31,NW,319,0.0,0.0,60,0.00,,,0.00,Wunderground v.1.15,2013-11-28 15:21:00,
2013-11-28 16:31:00,48.0,34.8,30.31,NW,319,0.0,0.0,60,0.00,,,0.00,Wunderground v.1.15,2013-11-28 15:31:00,
2013-11-28 16:41:00,47.9,35.1,30.31,NW,319,0.0,0.0,61,0.00,,,0.00,Wunderground v.1.15,2013-11-28 15:41:00,
2013-11-28 16:51:00,47.4,33.8,30.31,NW,319,0.0,0.0,59,0.00,,,0.00,Wunderground v.1.15,2013-11-28 15:51:00,
2013-11-28 17:01:00,46.8,33.6,30.31,NW,319,0.0,0.0,60,0.00,,,0.00,Wunderground v.1.15,2013-11-28 16:01:00,
2013-11-28 17:11:00,46.1,33.4,30.31,NW,319,0.0,1.0,61,0.00,,,0.00,Wunderground v.1.15,2013-11-28 16:11:00,
2013-11-28 17:21:00,45.5,34.8,30.31,West,263,1.0,1.0,66,0.00,,,0.00,Wunderground v.1.15,2013-11-28 16:21:00,
2013-11-28 17:31:00,44.5,34.6,30.31,West,262,1.0,1.0,68,0.00,,,0.00,Wunderground v.1.15,2013-11-28 16:31:00,
2013-11-28 17:41:00,43.4,33.5,30.31,West,262,0.0,0.0,68,0.00,,,0.00,Wunderground v.1.15,2013-11-28 16:41:00,
2013-11-28 17:51:00,42.8,33.7,30.32,West,262,0.0,4.0,70,0.00,,,0.00,Wunderground v.1.15,2013-11-28 16:51:00,
2013-11-28 18:01:00,42.1,32.7,30.32,SSW,194,1.0,1.0,69,0.00,,,0.00,Wunderground v.1.15,2013-11-28 17:01:00,
2013-11-28 18:11:00,41.9,32.8,30.32,WSW,250,2.0,3.0,70,0.00,,,0.00,Wunderground v.1.15,2013-11-28 17:11:00,
2013-11-28 18:21:00,41.3,33.0,30.32,WSW,246,3.0,3.0,72,0.00,,,0.00,Wunderground v.1.15,2013-11-28 17:21:00,
2013-11-28 18:31:00,40.7,32.7,30.32,West,262,3.0,3.0,73,0.00,,,0.00,Wunderground v.1.15,2013-11-28 17:31:00,
2013-11-28 18:41:00,40.5,32.9,30.31,WSW,251,3.0,5.0,74,0.00,,,0.00,Wunderground v.1.15,2013-11-28 17:41:00,
2013-11-28 18:51:00,40.2,32.9,30.31,WSW,253,3.0,4.0,75,0.00,,,0.00,Wunderground v.1.15,2013-11-28 17:51:00,
2013-11-28 19:01:00,39.7,32.8,30.31,West,261,2.0,2.0,76,0.00,,,0.00,Wunderground v.1.15,2013-11-28 18:01:00,
2013-11-28 19:11:00,39.3,32.7,30.30,WSW,246,3.0,3.0,77,0.00,,,0.00,Wunderground v.1.15,2013-11-28 18:11:00,
2013-11-28 19:21:00,39.0,32.7,30.31,West,271,2.0,3.0,78,0.00,,,0.00,Wunderground v.1.15,2013-11-28 18:21:00,
2013-11-28 19:31:00,38.8,32.2,30.31,West,271,2.0,3.0,77,0.00,,,0.00,Wunderground v.1.15,2013-11-28 18:31:00,
2013-11-28 19:41:00,38.4,32.1,30.31,West,261,2.0,2.0,78,0.00,,,0.00,Wunderground v.1.15,2013-11-28 18:41:00,
2013-11-28 19:51:00,38.2,32.3,30.31,WSW,248,2.0,3.0,79,0.00,,,0.00,Wunderground v.1.15,2013-11-28 18:51:00,
2013-11-28 20:01:00,37.9,32.0,30.31,WSW,250,3.0,4.0,79,0.00,,,0.00,Wunderground v.1.15,2013-11-28 19:01:00,
2013-11-28 20:11:00,37.6,31.7,30.31,West,265,3.0,3.0,79,0.00,,,0.00,Wunderground v.1.15,2013-11-28 19:11:00,
2013-11-28 20:21:00,37.8,31.6,30.32,West,276,3.0,5.0,78,0.00,,,0.00,Wunderground v.1.15,2013-11-28 19:21:00,
2013-11-28 20:31:00,37.5,31.3,30.32,WNW,290,3.0,3.0,78,0.00,,,0.00,Wunderground v.1.15,2013-11-28 19:31:00,
2013-11-28 20:41:00,37.4,31.2,30.32,WSW,253,2.0,3.0,78,0.00,,,0.00,Wunderground v.1.15,2013-11-28 19:41:00,
2013-11-28 20:51:00,37.1,30.9,30.31,WSW,245,3.0,3.0,78,0.00,,,0.00,Wunderground v.1.15,2013-11-28 19:51:00,
2013-11-28 21:01:00,36.8,30.9,30.31,West,273,2.0,2.0,79,0.00,,,0.00,Wunderground v.1.15,2013-11-28 20:01:00,
2013-11-28 21:11:00,36.6,30.4,30.29,West,259,2.0,3.0,78,0.00,,,0.00,Wunderground v.1.15,2013-11-28 20:11:00,
2013-11-28 21:21:00,36.3,30.4,30.30,WSW,254,2.0,2.0,79,0.00,,,0.00,Wunderground v.1.15,2013-11-28 20:21:00,
2013-11-28 21:41:00,35.8,30.2,30.30,West,272,2.0,3.0,80,0.00,,,0.00,Wunderground v.1.15,2013-11-28 20:41:00,
2013-11-28 22:01:00,35.9,30.3,30.30,West,266,2.0,2.0,80,0.00,,,0.00,Wunderground v.1.15,2013-11-28 21:01:00,
2013-11-28 22:11:00,36.0,29.8,30.30,WSW,251,1.0,1.0,78,0.00,,,0.00,Wunderground v.1.15,2013-11-28 21:11:00,
2013-11-28 22:21:00,35.9,29.7,30.30,WSW,252,0.0,0.0,78,0.00,,,0.00,Wunderground v.1.15,2013-11-28 21:21:00,
2013-11-28 22:51:00,34.4,29.8,30.29,WSW,252,0.0,0.0,83,0.00,,,0.00,Wunderground v.1.15,2013-11-28 21:51:00,
2013-11-28 23:01:00,34.4,29.8,30.29,WSW,252,0.0,0.0,83,0.00,,,0.00,Wunderground v.1.15,2013-11-28 22:01:00,
2013-11-28 23:11:00,34.1,29.5,30.28,WSW,252,0.0,1.0,83,0.00,,,0.00,Wunderground v.1.15,2013-11-28 22:11:00,
2013-11-28 23:31:00,33.9,29.3,30.28,WSW,241,1.0,1.0,83,0.00,,,0.00,Wunderground v.1.15,2013-11-28 22:31:00,
2013-11-28 23:41:00,34.1,29.2,30.28,WSW,241,0.0,0.0,82,0.00,,,0.00,Wunderground v.1.15,2013-11-28 22:41:00,